Regional Weather Roundup
Issued by NWS

Home | Current Version | Previous Version | Text Only | Print | Product List | Glossary On
Versions: 1 2 3 4 5 6 7 8 9 10 11 12 13 14 15 16 17 18 19 20 21 22 23 24 25 26 27 28 29 30 31 32 33 34 35 36 37 38 39 40 41 42 43 44 45 46 47 48 49 50
000
ASUS43 KDTX 260410
RWRMI
MICHIGAN HOURLY REGIONAL WEATHER ROUNDUP
NATIONAL WEATHER SERVICE DETROIT/PONTIAC MI
1200 AM EDT WED JUL 26 2017

NOTE: "FAIR" INDICATES FEW OR NO CLOUDS BELOW 12,000 FEET WITH NO
SIGNIFICANT WEATHER AND/OR OBSTRUCTION TO VISIBILITY.

MIZ047>049-052>055-059>063-066>070-074>076-081>083-260500-
SOUTHEAST LOWER MICHIGAN

CITY           SKY/WX    TMP DP  RH WIND       PRES   REMARKS
ADRIAN         CLEAR     63  57  81 S5        30.21R
ALMA           PTCLDY    58  54  86 CALM      30.18R
ANN ARBOR      CLEAR     60  59  96 SE3       30.20R
BAD AXE        CLOUDY    60  56  89 S5        30.19R
CARO           CLEAR     60  54  80 CALM      30.18R
DETROIT CITY   CLEAR     66  60  81 S5        30.20S
DETROIT        PTCLDY    67  63  87 SE5       30.21R
FLINT          CLEAR     64  56  75 S5        30.20R
GROSSE ILE     CLEAR     68  59  71 CALM      30.19R
HILLSDALE      MOCLDY    63  55  77 SE3       30.20F
HOWELL         CLEAR     65  59  80 S6        30.20R

CITY           SKY/WX    TMP DP  RH WIND       PRES   REMARKS
JACKSON        CLEAR     66  55  67 S6        30.20R
LAMBERTVILLE   CLEAR     61  60  96 CALM      30.20R
LANSING        CLEAR     67  54  63 S8        30.19R
LAPEER         FAIR      63  56  78 SE3       30.20R
MASON          CLEAR     60  57  87 CALM      30.19S
MONROE         CLEAR     62  57  84 CALM      30.19R
MT. CLEMENS    CLEAR     63  62  94 SE7       30.18R
PONTIAC        CLEAR     67  61  81 S5        30.19S
PORT HOPE        N/A     63  59  87 VRB5      30.17R
PORT HURON       N/A     59  57  94 CALM      30.20F FOG
TRI CITIES     CLEAR     67  57  70 S7        30.18S
MIDLAND        FAIR      60  56  87 CALM      30.17R
TROY           CLEAR     69  60  74 S6        30.22S
SAGINAW HB     CLEAR     61  55  82 SE5       30.17S
$$
MIZ043>046-050>051-056>058-064>065-071>073-077>080-260500-
SOUTHWEST LOWER MICHIGAN

CITY           SKY/WX    TMP DP  RH WIND       PRES   REMARKS
BATTLE CREEK   CLEAR     67  57  70 S6        30.19F
BENTON HARBOR  CLEAR     62  58  86 CALM      30.16F
BIG RAPIDS     CLEAR     61  54  77 CALM      30.18R
COLDWATER      CLEAR     63  60  91 CALM      30.19F
FREMONT        FAIR      63  60  90 CALM      30.18R
HOLLAND        PTCLDY    66  58  75 SE3       30.17S
GRAND RAPIDS   MOCLDY    66  57  72 S5        30.18R
IONIA          FAIR      65  54  67 S5        30.17S
KALAMAZOO      CLEAR     68  55  63 S5        30.18F
LUDINGTON      CLOUDY    70  55  59 SW9       30.15S
MARSHALL       CLEAR     66  57  74 S3        30.20R
MOUNT PLEASANT CLEAR     62  57  84 CALM      30.18R
MUSKEGON       CLOUDY    68  58  70 CALM      30.17R
SOUTH HAVEN    PTCLDY    62  60  91 CALM      30.16F
$$
MIZ016>042-260500-
NORTHERN LOWER MICHIGAN

CITY           SKY/WX    TMP DP  RH WIND       PRES   REMARKS
ALPENA         PTCLDY    64  57  78 S5        30.16R
BEAVER ISLAND  MOCLDY    69  61  77 SW9G21    30.12F
BELLAIRE       PTCLDY    71  56  60 S3        30.15R
CADILLAC       CLOUDY    68  55  63 SW6       30.18R
CHARLEVOIX     PTCLDY    66  63  90 SW7       30.17R
FRANKFORT      CLOUDY    72  53  51 S6        30.14S
GAYLORD        PTCLDY    68  54  60 S7        30.17R
GRAYLING       PTCLDY    61  54  78 CALM      30.19R
HARBOR SPRINGS PTCLDY    63  59  87 CALM      30.13S
HOUGHTON LAKE  CLEAR     67  56  67 S8        30.19R
MANISTEE       CLOUDY    68  55  63 CALM      30.14S
OSCODA         CLOUDY    58  54  84 SW3       30.17R
PELLSTON       PTCLDY    62  59  90 CALM      30.13R
ROGERS CITY    PTCLDY    65  56  71 S5        30.15R
TRAVERSE CITY  MOCLDY    71  60  68 CALM      30.15R
$$
MIZ007>008-015-260500-
EASTERN UPPER MICHIGAN

CITY           SKY/WX    TMP DP  RH WIND       PRES   REMARKS
KINROSS        MOCLDY    61  56  83 S5        30.11R
MACKINAC ISLAN CLOUDY    64  62  93 SW5       30.11R
NEWBERRY       CLOUDY    65  63  94 S8        30.08F
S. S. MARIE    MOCLDY    63  55  75 SE3       30.10R
MUNISING         N/A     69  59  70 S13G22    30.01F
$$
MIZ004>006-011>014-085-260500-
CENTRAL UPPER MICHIGAN

CITY           SKY/WX    TMP DP  RH WIND       PRES   REMARKS
MANISTIQUE     CLOUDY    68  61  80 SW13G18   30.07F
ESCANABA       CLOUDY    68  62  81 S14G22    30.05F
MENOMINEE      CLOUDY    66  63  90 VRB3      30.07F
SAWYER-GWINN   CLOUDY    65  61  85 S15       30.04S
$$
MIZ001>003-009>011-084-260500-
WESTERN UPPER MICHIGAN

CITY           SKY/WX    TMP DP  RH WIND       PRES   REMARKS
IRON MOUNTAIN  CLOUDY    68  61  78 S8        30.03F
HOUGHTON       LGT RAIN  72  58  61 SW9G21    29.95F
COPPER HARBOR    N/A     73  58  59 SW9G18    29.93F
IRONWOOD       CLOUDY    71  63  75 S14G21    29.95F
$$

ABBREVIATIONS USED IN REMARKS
   TC - TEMPERATURE IN CELSIUS
  WCI - WIND CHILL INDEX
   HX - HEAT INDEX
  VSB - VISIBILITY




USA.gov is the U.S. government's official web portal to all federal, state and local government web resources and services.